Time,TemperatureF,DewpointF,PressureIn,WindDirection,WindDirectionDegrees,WindSpeedMPH,WindSpeedGustMPH,Humidity,HourlyPrecipIn,Conditions,Clouds,dailyrainin,SoftwareType,DateUTC
2013-09-07 00:01:00,52.6,46.3,30.09,East,92,0.0,0.0,79,0.00,,,0.00,WeatherCatV1.15B25,2013-09-07 04:01:00,
2013-09-07 00:02:00,52.6,45.9,30.09,East,92,0.0,0.0,78,0.00,,,0.00,WeatherCatV1.15B25,2013-09-07 04:02:00,
2013-09-07 00:04:00,52.6,46.3,30.09,East,92,1.0,1.0,79,0.00,,,0.00,WeatherCatV1.15B25,2013-09-07 04:04:00,
2013-09-07 00:07:00,52.6,46.3,30.09,East,92,0.0,0.0,79,0.00,,,0.00,WeatherCatV1.15B25,2013-09-07 04:07:00,
2013-09-07 00:12:00,52.6,46.3,30.09,East,92,0.0,0.0,79,0.00,,,0.00,WeatherCatV1.15B25,2013-09-07 04:12:00,
2013-09-07 00:17:00,52.6,46.3,30.09,East,92,0.0,1.0,79,0.00,,,0.00,WeatherCatV1.15B25,2013-09-07 04:17:00,
2013-09-07 00:22:00,52.6,46.3,30.09,East,92,0.0,0.0,79,0.00,,,0.00,WeatherCatV1.15B25,2013-09-07 04:22:00,
2013-09-07 00:27:00,52.4,46.1,30.09,East,92,0.0,0.0,79,0.00,,,0.00,WeatherCatV1.15B25,2013-09-07 04:27:00,
2013-09-07 00:32:00,52.3,46.0,30.09,East,92,0.0,1.0,79,0.00,,,0.00,WeatherCatV1.15B25,2013-09-07 04:32:00,
2013-09-07 00:37:00,52.1,46.1,30.09,East,92,0.0,0.0,80,0.00,,,0.00,WeatherCatV1.15B25,2013-09-07 04:37:00,
2013-09-07 00:42:00,52.0,46.0,30.09,East,92,0.0,0.0,80,0.00,,,0.00,WeatherCatV1.15B25,2013-09-07 04:42:00,
2013-09-07 00:47:00,51.8,46.2,30.09,East,92,0.0,0.0,81,0.00,,,0.00,WeatherCatV1.15B25,2013-09-07 04:47:00,
2013-09-07 00:52:00,51.6,46.0,30.09,East,92,0.0,0.0,81,0.00,,,0.00,WeatherCatV1.15B25,2013-09-07 04:52:00,
2013-09-07 00:57:00,51.3,46.0,30.09,East,92,0.0,0.0,82,0.00,,,0.00,WeatherCatV1.15B25,2013-09-07 04:57:00,
2013-09-07 01:02:00,51.3,46.0,30.09,East,92,0.0,0.0,82,0.00,,,0.00,WeatherCatV1.15B25,2013-09-07 05:02:00,
2013-09-07 01:07:00,51.1,45.8,30.09,East,92,0.0,0.0,82,0.00,,,0.00,WeatherCatV1.15B25,2013-09-07 05:07:00,
2013-09-07 01:12:00,51.0,46.0,30.09,East,92,0.0,0.0,83,0.00,,,0.00,WeatherCatV1.15B25,2013-09-07 05:12:00,
2013-09-07 01:17:00,50.9,45.9,30.08,East,92,0.0,0.0,83,0.00,,,0.00,WeatherCatV1.15B25,2013-09-07 05:17:00,
2013-09-07 01:22:00,50.7,45.7,30.08,East,92,0.0,0.0,83,0.00,,,0.00,WeatherCatV1.15B25,2013-09-07 05:22:00,
2013-09-07 01:27:00,50.5,45.8,30.08,East,92,0.0,0.0,84,0.00,,,0.00,WeatherCatV1.15B25,2013-09-07 05:27:00,
2013-09-07 01:32:00,50.5,45.8,30.08,East,92,0.0,0.0,84,0.00,,,0.00,WeatherCatV1.15B25,2013-09-07 05:32:00,
2013-09-07 01:37:00,50.3,45.7,30.08,East,92,0.0,0.0,84,0.00,,,0.00,WeatherCatV1.15B25,2013-09-07 05:37:00,
2013-09-07 01:42:00,50.2,45.9,30.08,East,92,0.0,0.0,85,0.00,,,0.00,WeatherCatV1.15B25,2013-09-07 05:42:00,
2013-09-07 01:47:00,50.2,45.9,30.08,East,92,0.0,0.0,85,0.00,,,0.00,WeatherCatV1.15B25,2013-09-07 05:47:00,
2013-09-07 01:52:00,50.3,46.0,30.08,East,92,0.0,0.0,85,0.00,,,0.00,WeatherCatV1.15B25,2013-09-07 05:52:00,
2013-09-07 01:57:00,50.2,45.9,30.08,East,92,0.0,0.0,85,0.00,,,0.00,WeatherCatV1.15B25,2013-09-07 05:57:00,
2013-09-07 02:02:00,50.1,45.8,30.07,East,92,0.0,1.0,85,0.00,,,0.00,WeatherCatV1.15B25,2013-09-07 06:02:00,
2013-09-07 02:07:00,50.3,46.0,30.07,East,92,0.0,0.0,85,0.00,,,0.00,WeatherCatV1.15B25,2013-09-07 06:07:00,
2013-09-07 02:12:00,50.4,46.1,30.07,East,93,0.0,0.0,85,0.00,,,0.00,WeatherCatV1.15B25,2013-09-07 06:12:00,
2013-09-07 02:17:00,50.4,46.1,30.07,East,92,0.0,0.0,85,0.00,,,0.00,WeatherCatV1.15B25,2013-09-07 06:17:00,
2013-09-07 02:22:00,50.4,45.7,30.07,East,92,0.0,0.0,84,0.00,,,0.00,WeatherCatV1.15B25,2013-09-07 06:22:00,
2013-09-07 02:27:00,50.5,45.8,30.07,East,92,0.0,0.0,84,0.00,,,0.00,WeatherCatV1.15B25,2013-09-07 06:27:00,
2013-09-07 02:32:00,50.5,45.8,30.06,East,92,0.0,0.0,84,0.00,,,0.00,WeatherCatV1.15B25,2013-09-07 06:32:00,
2013-09-07 02:37:00,50.4,45.7,30.06,East,92,0.0,0.0,84,0.00,,,0.00,WeatherCatV1.15B25,2013-09-07 06:37:00,
2013-09-07 02:42:00,50.4,46.1,30.07,East,92,0.0,1.0,85,0.00,,,0.00,WeatherCatV1.15B25,2013-09-07 06:42:00,
2013-09-07 02:47:00,50.5,45.8,30.07,East,92,0.0,0.0,84,0.00,,,0.00,WeatherCatV1.15B25,2013-09-07 06:47:00,
2013-09-07 02:52:00,50.5,45.8,30.07,ESE,116,0.0,0.0,84,0.00,,,0.00,WeatherCatV1.15B25,2013-09-07 06:52:00,
2013-09-07 02:57:00,50.5,46.2,30.07,ESE,116,0.0,0.0,85,0.00,,,0.00,WeatherCatV1.15B25,2013-09-07 06:57:00,
2013-09-07 03:02:00,50.4,46.1,30.07,ESE,116,0.0,0.0,85,0.00,,,0.00,WeatherCatV1.15B25,2013-09-07 07:02:00,
2013-09-07 03:08:00,50.3,45.7,30.06,ESE,116,0.0,0.0,84,0.00,,,0.00,WeatherCatV1.15B25,2013-09-07 07:08:00,
2013-09-07 03:13:00,50.3,45.7,30.07,East,86,0.0,1.0,84,0.00,,,0.00,WeatherCatV1.15B25,2013-09-07 07:13:00,
2013-09-07 03:17:00,50.2,45.6,30.07,East,86,0.0,0.0,84,0.00,,,0.00,WeatherCatV1.15B25,2013-09-07 07:17:00,
2013-09-07 03:22:00,50.1,45.5,30.07,East,86,0.0,0.0,84,0.00,,,0.00,WeatherCatV1.15B25,2013-09-07 07:22:00,
2013-09-07 03:27:00,50.0,45.7,30.07,East,86,0.0,0.0,85,0.00,,,0.00,WeatherCatV1.15B25,2013-09-07 07:27:00,
2013-09-07 03:32:00,49.8,45.5,30.07,East,86,0.0,0.0,85,0.00,,,0.00,WeatherCatV1.15B25,2013-09-07 07:32:00,
2013-09-07 03:37:00,49.7,45.7,30.07,East,101,0.0,0.0,86,0.00,,,0.00,WeatherCatV1.15B25,2013-09-07 07:37:00,
2013-09-07 03:43:00,49.6,45.6,30.07,East,100,0.0,0.0,86,0.00,,,0.00,WeatherCatV1.15B25,2013-09-07 07:43:00,
2013-09-07 03:48:00,49.6,45.6,30.06,East,100,0.0,0.0,86,0.00,,,0.00,WeatherCatV1.15B25,2013-09-07 07:48:00,
2013-09-07 03:53:00,49.6,45.6,30.06,East,101,0.0,0.0,86,0.00,,,0.00,WeatherCatV1.15B25,2013-09-07 07:53:00,
2013-09-07 03:58:00,49.6,45.6,30.07,East,100,0.0,0.0,86,0.00,,,0.00,WeatherCatV1.15B25,2013-09-07 07:58:00,
2013-09-07 04:03:00,49.5,45.5,30.07,East,100,0.0,0.0,86,0.00,,,0.00,WeatherCatV1.15B25,2013-09-07 08:03:00,
2013-09-07 04:08:00,49.4,45.4,30.06,East,101,0.0,0.0,86,0.00,,,0.00,WeatherCatV1.15B25,2013-09-07 08:08:00,
2013-09-07 04:13:00,49.3,45.3,30.06,East,101,0.0,1.0,86,0.00,,,0.00,WeatherCatV1.15B25,2013-09-07 08:13:00,
2013-09-07 04:18:00,49.3,45.3,30.06,East,100,0.0,0.0,86,0.00,,,0.00,WeatherCatV1.15B25,2013-09-07 08:18:00,
2013-09-07 04:23:00,49.2,45.5,30.06,East,100,0.0,0.0,87,0.00,,,0.00,WeatherCatV1.15B25,2013-09-07 08:23:00,
2013-09-07 04:28:00,49.2,45.5,30.06,East,100,0.0,1.0,87,0.00,,,0.00,WeatherCatV1.15B25,2013-09-07 08:28:00,
2013-09-07 04:33:00,49.2,45.5,30.06,East,100,0.0,0.0,87,0.00,,,0.00,WeatherCatV1.15B25,2013-09-07 08:33:00,
2013-09-07 04:38:00,49.2,45.5,30.07,East,100,0.0,0.0,87,0.00,,,0.00,WeatherCatV1.15B25,2013-09-07 08:38:00,
2013-09-07 04:43:00,49.0,45.3,30.07,East,100,0.0,0.0,87,0.00,,,0.00,WeatherCatV1.15B25,2013-09-07 08:43:00,
2013-09-07 04:48:00,48.9,45.2,30.06,East,100,0.0,0.0,87,0.00,,,0.00,WeatherCatV1.15B25,2013-09-07 08:48:00,
2013-09-07 04:53:00,48.9,45.5,30.06,ESE,110,0.0,0.0,88,0.00,,,0.00,WeatherCatV1.15B25,2013-09-07 08:53:00,
2013-09-07 04:58:00,49.0,45.6,30.06,ESE,110,0.0,0.0,88,0.00,,,0.00,WeatherCatV1.15B25,2013-09-07 08:58:00,
2013-09-07 05:03:00,49.0,45.3,30.06,ESE,110,0.0,0.0,87,0.00,,,0.00,WeatherCatV1.15B25,2013-09-07 09:03:00,
2013-09-07 05:08:00,49.1,45.7,30.06,SE,124,0.0,2.0,88,0.00,,,0.00,WeatherCatV1.15B25,2013-09-07 09:08:00,
2013-09-07 05:14:00,49.1,45.4,30.06,SE,124,0.0,0.0,87,0.00,,,0.00,WeatherCatV1.15B25,2013-09-07 09:14:00,
2013-09-07 05:19:00,49.2,45.5,30.05,SE,124,0.0,0.0,87,0.00,,,0.00,WeatherCatV1.15B25,2013-09-07 09:19:00,
2013-09-07 05:24:00,49.1,45.4,30.05,SE,124,0.0,0.0,87,0.00,,,0.00,WeatherCatV1.15B25,2013-09-07 09:24:00,
2013-09-07 05:29:00,49.0,45.3,30.05,SE,124,0.0,0.0,87,0.00,,,0.00,WeatherCatV1.15B25,2013-09-07 09:29:00,
2013-09-07 05:34:00,49.0,45.6,30.05,SE,124,0.0,0.0,88,0.00,,,0.00,WeatherCatV1.15B25,2013-09-07 09:34:00,
2013-09-07 05:39:00,49.0,45.3,30.05,SE,124,0.0,0.0,87,0.00,,,0.00,WeatherCatV1.15B25,2013-09-07 09:39:00,
2013-09-07 05:44:00,49.0,45.3,30.05,SE,124,0.0,0.0,87,0.00,,,0.00,WeatherCatV1.15B25,2013-09-07 09:44:00,
2013-09-07 05:49:00,49.0,45.3,30.05,SE,124,0.0,0.0,87,0.00,,,0.00,WeatherCatV1.15B25,2013-09-07 09:49:00,
2013-09-07 05:54:00,48.9,45.2,30.05,SE,124,0.0,0.0,87,0.00,,,0.00,WeatherCatV1.15B25,2013-09-07 09:54:00,
2013-09-07 05:59:00,48.8,45.1,30.05,SE,124,0.0,0.0,87,0.00,,,0.00,WeatherCatV1.15B25,2013-09-07 09:59:00,
2013-09-07 06:04:00,48.8,45.4,30.06,SE,124,0.0,0.0,88,0.00,,,0.00,WeatherCatV1.15B25,2013-09-07 10:04:00,
2013-09-07 06:09:00,48.7,45.3,30.06,SE,124,0.0,0.0,88,0.00,,,0.00,WeatherCatV1.15B25,2013-09-07 10:09:00,
2013-09-07 06:14:00,48.6,45.2,30.05,SE,124,0.0,0.0,88,0.00,,,0.00,WeatherCatV1.15B25,2013-09-07 10:14:00,
2013-09-07 06:19:00,48.6,45.2,30.05,SE,124,0.0,0.0,88,0.00,,,0.00,WeatherCatV1.15B25,2013-09-07 10:19:00,
2013-09-07 06:24:00,48.5,45.1,30.05,SE,124,0.0,0.0,88,0.00,,,0.00,WeatherCatV1.15B25,2013-09-07 10:24:00,
2013-09-07 06:29:00,48.4,45.3,30.06,SE,124,0.0,0.0,89,0.00,,,0.00,WeatherCatV1.15B25,2013-09-07 10:29:00,
2013-09-07 06:34:00,48.4,45.3,30.06,SE,124,0.0,0.0,89,0.00,,,0.00,WeatherCatV1.15B25,2013-09-07 10:34:00,
2013-09-07 06:39:00,48.5,45.1,30.06,SE,124,0.0,0.0,88,0.00,,,0.00,WeatherCatV1.15B25,2013-09-07 10:39:00,
2013-09-07 06:44:00,48.9,45.5,30.06,NE,45,0.0,0.0,88,0.00,,,0.00,WeatherCatV1.15B25,2013-09-07 10:44:00,
2013-09-07 06:50:00,49.3,45.6,30.06,NE,45,0.0,0.0,87,0.00,,,0.00,WeatherCatV1.15B25,2013-09-07 10:50:00,
2013-09-07 06:55:00,49.4,45.7,30.07,NE,45,0.0,1.0,87,0.00,,,0.00,WeatherCatV1.15B25,2013-09-07 10:55:00,
2013-09-07 07:00:00,49.7,45.7,30.07,West,273,0.0,0.0,86,0.00,,,0.00,WeatherCatV1.15B25,2013-09-07 11:00:00,
2013-09-07 07:05:00,49.7,46.0,30.07,West,273,0.0,1.0,87,0.00,,,0.00,WeatherCatV1.15B25,2013-09-07 11:05:00,
2013-09-07 07:10:00,49.7,46.0,30.06,West,273,0.0,0.0,87,0.00,,,0.00,WeatherCatV1.15B25,2013-09-07 11:10:00,
2013-09-07 07:15:00,49.7,46.0,30.06,West,273,0.0,0.0,87,0.00,,,0.00,WeatherCatV1.15B25,2013-09-07 11:15:00,
2013-09-07 07:20:00,49.7,46.0,30.06,West,273,0.0,0.0,87,0.00,,,0.00,WeatherCatV1.15B25,2013-09-07 11:20:00,
2013-09-07 07:25:00,49.8,46.4,30.06,West,273,0.0,0.0,88,0.00,,,0.00,WeatherCatV1.15B25,2013-09-07 11:25:00,
2013-09-07 07:30:00,50.0,46.6,30.06,West,273,0.0,0.0,88,0.00,,,0.00,WeatherCatV1.15B25,2013-09-07 11:30:00,
2013-09-07 07:35:00,50.4,47.0,30.06,West,273,0.0,0.0,88,0.00,,,0.00,WeatherCatV1.15B25,2013-09-07 11:35:00,
2013-09-07 07:40:00,50.6,47.2,30.06,West,273,0.0,0.0,88,0.00,,,0.00,WeatherCatV1.15B25,2013-09-07 11:40:00,
2013-09-07 07:45:00,51.2,46.8,30.06,West,277,0.0,0.0,85,0.00,,,0.00,WeatherCatV1.15B25,2013-09-07 11:45:00,
2013-09-07 07:50:00,51.6,47.2,30.05,West,277,0.0,0.0,85,0.00,,,0.00,WeatherCatV1.15B25,2013-09-07 11:50:00,
2013-09-07 07:55:00,52.2,47.2,30.06,West,274,0.0,1.0,83,0.00,,,0.00,WeatherCatV1.15B25,2013-09-07 11:55:00,
2013-09-07 08:00:00,52.7,47.4,30.05,WNW,300,0.0,1.0,82,0.00,,,0.00,WeatherCatV1.15B25,2013-09-07 12:00:00,
2013-09-07 08:05:00,53.2,47.5,30.05,WNW,301,0.0,0.0,81,0.00,,,0.00,WeatherCatV1.15B25,2013-09-07 12:05:00,
2013-09-07 08:10:00,53.6,47.6,30.05,WNW,300,0.0,1.0,80,0.00,,,0.00,WeatherCatV1.15B25,2013-09-07 12:10:00,
2013-09-07 08:15:00,54.0,48.0,30.05,WNW,300,0.0,1.0,80,0.00,,,0.00,WeatherCatV1.15B25,2013-09-07 12:15:00,
2013-09-07 08:20:00,54.5,48.1,30.04,WNW,300,0.0,0.0,79,0.00,,,0.00,WeatherCatV1.15B25,2013-09-07 12:20:00,
2013-09-07 08:25:00,55.0,48.3,30.04,ESE,116,1.0,1.0,78,0.00,,,0.00,WeatherCatV1.15B25,2013-09-07 12:25:00,
2013-09-07 08:30:00,55.4,48.3,30.04,NNW,333,0.0,0.0,77,0.00,,,0.00,WeatherCatV1.15B25,2013-09-07 12:30:00,
2013-09-07 08:35:00,55.8,48.3,30.04,NNW,333,1.0,1.0,76,0.00,,,0.00,WeatherCatV1.15B25,2013-09-07 12:35:00,
2013-09-07 08:40:00,56.2,48.7,30.04,WNW,302,0.0,1.0,76,0.00,,,0.00,WeatherCatV1.15B25,2013-09-07 12:40:00,
2013-09-07 08:45:00,56.6,49.1,30.04,WNW,302,0.0,0.0,76,0.00,,,0.00,WeatherCatV1.15B25,2013-09-07 12:45:00,
2013-09-07 08:50:00,57.0,49.2,30.04,NW,311,0.0,1.0,75,0.00,,,0.00,WeatherCatV1.15B25,2013-09-07 12:50:00,
2013-09-07 08:55:00,57.5,49.6,30.03,NW,311,0.0,0.0,75,0.00,,,0.00,WeatherCatV1.15B25,2013-09-07 12:55:00,
2013-09-07 09:00:00,58.0,49.8,30.03,ESE,115,1.0,2.0,74,0.00,,,0.00,WeatherCatV1.15B25,2013-09-07 13:00:00,
2013-09-07 09:05:00,58.9,49.9,30.03,SE,130,0.0,3.0,72,0.00,,,0.00,WeatherCatV1.15B25,2013-09-07 13:05:00,
2013-09-07 09:10:00,59.5,50.5,30.03,SSE,150,0.0,0.0,72,0.00,,,0.00,WeatherCatV1.15B25,2013-09-07 13:10:00,
2013-09-07 09:15:00,60.1,50.7,30.03,ESE,103,2.0,2.0,71,0.00,,,0.00,WeatherCatV1.15B25,2013-09-07 13:15:00,
2013-09-07 09:20:00,60.6,50.8,30.03,NNW,345,2.0,3.0,70,0.00,,,0.00,WeatherCatV1.15B25,2013-09-07 13:20:00,
2013-09-07 09:25:00,61.0,50.8,30.03,West,265,0.0,0.0,69,0.00,,,0.00,WeatherCatV1.15B25,2013-09-07 13:25:00,
2013-09-07 09:30:00,61.8,51.1,30.02,South,179,0.0,3.0,68,0.00,,,0.00,WeatherCatV1.15B25,2013-09-07 13:30:00,
2013-09-07 09:35:00,62.2,50.3,30.02,NNW,328,1.0,2.0,65,0.00,,,0.00,WeatherCatV1.15B25,2013-09-07 13:35:00,
2013-09-07 09:40:00,62.4,50.9,30.02,ESE,110,3.0,3.0,66,0.00,,,0.00,WeatherCatV1.15B25,2013-09-07 13:40:00,
2013-09-07 09:45:00,63.0,51.0,30.02,ESE,115,1.0,2.0,65,0.00,,,0.00,WeatherCatV1.15B25,2013-09-07 13:45:00,
2013-09-07 09:50:00,63.5,51.1,30.02,North,1,0.0,2.0,64,0.00,,,0.00,WeatherCatV1.15B25,2013-09-07 13:50:00,
2013-09-07 09:55:00,63.7,51.3,30.02,NW,325,1.0,1.0,64,0.00,,,0.00,WeatherCatV1.15B25,2013-09-07 13:55:00,
2013-09-07 10:00:00,64.2,50.9,30.02,WNW,300,0.0,2.0,62,0.00,,,0.00,WeatherCatV1.15B25,2013-09-07 14:00:00,
2013-09-07 10:05:00,64.7,50.5,30.02,ESE,122,0.0,4.0,60,0.00,,,0.00,WeatherCatV1.15B25,2013-09-07 14:05:00,
2013-09-07 10:10:00,65.6,51.3,30.02,SSW,211,0.0,1.0,60,0.00,,,0.00,WeatherCatV1.15B25,2013-09-07 14:10:00,
2013-09-07 10:15:00,66.7,51.4,30.02,NNW,346,0.0,2.0,58,0.00,,,0.00,WeatherCatV1.15B25,2013-09-07 14:15:00,
2013-09-07 10:20:00,67.5,50.8,30.02,South,180,1.0,3.0,55,0.00,,,0.00,WeatherCatV1.15B25,2013-09-07 14:20:00,
2013-09-07 10:25:00,67.6,50.8,30.02,WSW,240,0.0,1.0,55,0.00,,,0.00,WeatherCatV1.15B25,2013-09-07 14:25:00,
2013-09-07 10:30:00,68.0,50.2,30.02,NE,34,0.0,1.0,53,0.00,,,0.00,WeatherCatV1.15B25,2013-09-07 14:30:00,
2013-09-07 10:35:00,68.2,50.9,30.02,NW,307,0.0,2.0,54,0.00,,,0.00,WeatherCatV1.15B25,2013-09-07 14:35:00,
2013-09-07 10:40:00,68.1,49.8,30.02,SW,236,1.0,3.0,52,0.00,,,0.00,WeatherCatV1.15B25,2013-09-07 14:40:00,
2013-09-07 10:45:00,68.4,50.1,30.02,NW,309,0.0,3.0,52,0.00,,,0.00,WeatherCatV1.15B25,2013-09-07 14:45:00,
2013-09-07 10:50:00,68.6,50.3,30.02,WNW,290,2.0,4.0,52,0.00,,,0.00,WeatherCatV1.15B25,2013-09-07 14:50:00,
2013-09-07 10:55:00,68.9,50.0,30.01,NW,322,1.0,3.0,51,0.00,,,0.00,WeatherCatV1.15B25,2013-09-07 14:55:00,
2013-09-07 11:00:00,69.4,51.0,30.01,ENE,70,0.0,0.0,52,0.00,,,0.00,WeatherCatV1.15B25,2013-09-07 15:00:00,
2013-09-07 11:05:00,70.0,50.5,30.01,NW,323,0.0,4.0,50,0.00,,,0.00,WeatherCatV1.15B25,2013-09-07 15:05:00,
2013-09-07 11:10:00,70.0,50.5,30.01,NNW,339,1.0,2.0,50,0.00,,,0.00,WeatherCatV1.15B25,2013-09-07 15:10:00,
2013-09-07 11:15:00,70.3,50.2,30.00,NW,307,1.0,4.0,49,0.00,,,0.00,WeatherCatV1.15B25,2013-09-07 15:15:00,
2013-09-07 11:20:00,70.5,49.9,30.00,North,356,4.0,4.0,48,0.00,,,0.00,WeatherCatV1.15B25,2013-09-07 15:20:00,
2013-09-07 11:25:00,70.9,50.2,29.99,North,353,0.0,1.0,48,0.00,,,0.00,WeatherCatV1.15B25,2013-09-07 15:25:00,
2013-09-07 11:30:00,71.5,50.8,29.99,WSW,249,0.0,3.0,48,0.00,,,0.00,WeatherCatV1.15B25,2013-09-07 15:30:00,
2013-09-07 11:35:00,72.3,50.9,29.99,NNW,328,0.0,2.0,47,0.00,,,0.00,WeatherCatV1.15B25,2013-09-07 15:35:00,
2013-09-07 11:40:00,72.8,52.0,29.99,NNW,338,3.0,3.0,48,0.00,,,0.00,WeatherCatV1.15B25,2013-09-07 15:40:00,
2013-09-07 11:45:00,72.7,51.3,29.99,SW,224,0.0,2.0,47,0.00,,,0.00,WeatherCatV1.15B25,2013-09-07 15:45:00,
2013-09-07 11:50:00,73.1,51.7,29.99,NW,326,0.0,1.0,47,0.00,,,0.00,WeatherCatV1.15B25,2013-09-07 15:50:00,
2013-09-07 11:55:00,73.7,50.4,29.98,ENE,65,5.0,6.0,44,0.00,,,0.00,WeatherCatV1.15B25,2013-09-07 15:55:00,
2013-09-07 12:00:00,73.7,51.6,29.98,NW,314,0.0,2.0,46,0.00,,,0.00,WeatherCatV1.15B25,2013-09-07 16:00:00,
2013-09-07 12:05:00,73.9,50.0,29.97,West,269,2.0,3.0,43,0.00,,,0.00,WeatherCatV1.15B25,2013-09-07 16:05:00,
2013-09-07 12:10:00,74.4,51.0,29.97,NW,324,2.0,2.0,44,0.00,,,0.00,WeatherCatV1.15B25,2013-09-07 16:10:00,
2013-09-07 12:15:00,74.7,50.1,29.97,NNW,327,1.0,4.0,42,0.00,,,0.00,WeatherCatV1.15B25,2013-09-07 16:15:00,
2013-09-07 12:20:00,74.2,50.2,29.97,NW,323,2.0,5.0,43,0.00,,,0.00,WeatherCatV1.15B25,2013-09-07 16:20:00,
2013-09-07 12:25:00,74.6,50.6,29.97,North,352,1.0,2.0,43,0.00,,,0.00,WeatherCatV1.15B25,2013-09-07 16:25:00,
2013-09-07 12:30:00,75.0,51.0,29.97,WNW,302,3.0,4.0,43,0.00,,,0.00,WeatherCatV1.15B25,2013-09-07 16:30:00,
2013-09-07 12:35:00,74.9,50.9,29.97,NNW,342,1.0,2.0,43,0.00,,,0.00,WeatherCatV1.15B25,2013-09-07 16:35:00,
2013-09-07 12:40:00,75.1,50.4,29.96,West,271,0.0,2.0,42,0.00,,,0.00,WeatherCatV1.15B25,2013-09-07 16:40:00,
2013-09-07 12:45:00,75.7,52.2,29.96,East,93,2.0,3.0,44,0.00,,,0.00,WeatherCatV1.15B25,2013-09-07 16:45:00,
2013-09-07 12:50:00,76.2,50.8,29.96,WSW,247,1.0,2.0,41,0.00,,,0.00,WeatherCatV1.15B25,2013-09-07 16:50:00,
2013-09-07 12:55:00,76.1,50.0,29.96,NW,323,1.0,4.0,40,0.00,,,0.00,WeatherCatV1.15B25,2013-09-07 16:55:00,
2013-09-07 13:00:00,76.0,49.9,29.96,NNW,343,2.0,2.0,40,0.00,,,0.00,WeatherCatV1.15B25,2013-09-07 17:00:00,
2013-09-07 13:05:00,76.2,50.1,29.96,NW,326,2.0,3.0,40,0.00,,,0.00,WeatherCatV1.15B25,2013-09-07 17:05:00,
2013-09-07 13:10:00,76.0,49.9,29.95,NW,323,0.0,4.0,40,0.00,,,0.00,WeatherCatV1.15B25,2013-09-07 17:10:00,
2013-09-07 13:15:00,76.7,51.2,29.95,SE,125,0.0,3.0,41,0.00,,,0.00,WeatherCatV1.15B25,2013-09-07 17:15:00,
2013-09-07 13:20:00,77.3,49.7,29.95,West,269,1.0,3.0,38,0.00,,,0.00,WeatherCatV1.15B25,2013-09-07 17:20:00,
2013-09-07 13:25:00,77.7,50.0,29.95,WNW,283,1.0,1.0,38,0.00,,,0.00,WeatherCatV1.15B25,2013-09-07 17:25:00,
2013-09-07 13:30:00,77.8,49.4,29.95,NNE,18,0.0,4.0,37,0.00,,,0.00,WeatherCatV1.15B25,2013-09-07 17:30:00,
2013-09-07 13:35:00,77.5,49.2,29.95,West,278,2.0,4.0,37,0.00,,,0.00,WeatherCatV1.15B25,2013-09-07 17:35:00,
2013-09-07 13:40:00,77.5,49.2,29.95,NNE,13,0.0,4.0,37,0.00,,,0.00,WeatherCatV1.15B25,2013-09-07 17:40:00,
2013-09-07 13:45:00,78.0,51.0,29.95,NNE,32,0.0,2.0,39,0.00,,,0.00,WeatherCatV1.15B25,2013-09-07 17:45:00,
2013-09-07 13:50:00,78.4,51.4,29.94,NNW,330,3.0,3.0,39,0.00,,,0.00,WeatherCatV1.15B25,2013-09-07 17:50:00,
2013-09-07 13:55:00,78.2,50.5,29.94,ESE,106,0.0,4.0,38,0.00,,,0.00,WeatherCatV1.15B25,2013-09-07 17:55:00,
2013-09-07 14:00:00,78.3,49.9,29.93,East,79,1.0,3.0,37,0.00,,,0.00,WeatherCatV1.15B25,2013-09-07 18:00:00,
2013-09-07 14:05:00,78.4,49.9,29.93,NNE,13,0.0,4.0,37,0.00,,,0.00,WeatherCatV1.15B25,2013-09-07 18:05:00,
2013-09-07 14:10:00,78.1,50.4,29.93,ESE,115,3.0,3.0,38,0.00,,,0.00,WeatherCatV1.15B25,2013-09-07 18:10:00,
2013-09-07 14:15:00,78.3,52.0,29.92,NW,319,1.0,1.0,40,0.00,,,0.00,WeatherCatV1.15B25,2013-09-07 18:15:00,
2013-09-07 14:20:00,78.5,51.5,29.92,SE,128,0.0,4.0,39,0.00,,,0.00,WeatherCatV1.15B25,2013-09-07 18:20:00,
2013-09-07 14:25:00,78.7,50.9,29.92,WNW,290,2.0,2.0,38,0.00,,,0.00,WeatherCatV1.15B25,2013-09-07 18:25:00,
2013-09-07 14:30:00,78.7,52.3,29.92,NE,50,0.0,1.0,40,0.00,,,0.00,WeatherCatV1.15B25,2013-09-07 18:30:00,
2013-09-07 14:35:00,79.2,52.8,29.92,NNW,331,1.0,2.0,40,0.00,,,0.00,WeatherCatV1.15B25,2013-09-07 18:35:00,
2013-09-07 14:40:00,78.8,51.7,29.91,NW,309,3.0,6.0,39,0.00,,,0.00,WeatherCatV1.15B25,2013-09-07 18:40:00,
2013-09-07 14:45:00,78.8,53.1,29.91,ESE,111,0.0,5.0,41,0.00,,,0.00,WeatherCatV1.15B25,2013-09-07 18:45:00,
2013-09-07 14:50:00,78.9,52.5,29.91,NW,306,3.0,5.0,40,0.00,,,0.00,WeatherCatV1.15B25,2013-09-07 18:50:00,
2013-09-07 14:55:00,78.8,52.4,29.91,WSW,250,1.0,4.0,40,0.00,,,0.00,WeatherCatV1.15B25,2013-09-07 18:55:00,
2013-09-07 15:00:00,79.1,52.7,29.91,NNW,329,1.0,1.0,40,0.00,,,0.00,WeatherCatV1.15B25,2013-09-07 19:00:00,
2013-09-07 15:05:00,79.0,53.3,29.91,NNW,340,0.0,5.0,41,0.00,,,0.00,WeatherCatV1.15B25,2013-09-07 19:05:00,
2013-09-07 15:10:00,79.0,53.3,29.90,ESE,113,0.0,1.0,41,0.00,,,0.00,WeatherCatV1.15B25,2013-09-07 19:10:00,
2013-09-07 15:15:00,78.9,52.5,29.90,WSW,241,0.0,1.0,40,0.00,,,0.00,WeatherCatV1.15B25,2013-09-07 19:15:00,
2013-09-07 15:20:00,78.9,54.5,29.90,ESE,112,2.0,3.0,43,0.00,,,0.00,WeatherCatV1.15B25,2013-09-07 19:20:00,
2013-09-07 15:25:00,78.7,53.7,29.91,WSW,246,0.0,2.0,42,0.00,,,0.00,WeatherCatV1.15B25,2013-09-07 19:25:00,
2013-09-07 15:30:00,78.6,53.6,29.90,SE,140,2.0,3.0,42,0.00,,,0.00,WeatherCatV1.15B25,2013-09-07 19:30:00,
2013-09-07 15:35:00,78.3,53.9,29.90,ESE,112,1.0,1.0,43,0.00,,,0.00,WeatherCatV1.15B25,2013-09-07 19:35:00,
2013-09-07 15:40:00,78.3,53.3,29.90,ESE,113,3.0,3.0,42,0.00,,,0.00,WeatherCatV1.15B25,2013-09-07 19:40:00,
2013-09-07 15:45:00,78.2,53.8,29.90,ESE,110,0.0,2.0,43,0.00,,,0.00,WeatherCatV1.15B25,2013-09-07 19:45:00,
2013-09-07 15:50:00,78.0,53.7,29.90,ESE,107,2.0,5.0,43,0.00,,,0.00,WeatherCatV1.15B25,2013-09-07 19:50:00,
2013-09-07 15:55:00,77.8,53.5,29.90,NE,49,0.0,3.0,43,0.00,,,0.00,WeatherCatV1.15B25,2013-09-07 19:55:00,
2013-09-07 16:00:00,77.7,54.0,29.90,ESE,115,0.0,4.0,44,0.00,,,0.00,WeatherCatV1.15B25,2013-09-07 20:00:00,
2013-09-07 16:05:00,77.5,55.1,29.89,ESE,102,0.0,1.0,46,0.00,,,0.00,WeatherCatV1.15B25,2013-09-07 20:05:00,
2013-09-07 16:10:00,77.4,53.8,29.89,North,3,2.0,2.0,44,0.00,,,0.00,WeatherCatV1.15B25,2013-09-07 20:10:00,
2013-09-07 16:15:00,77.0,54.0,29.89,NW,311,0.0,3.0,45,0.00,,,0.00,WeatherCatV1.15B25,2013-09-07 20:15:00,
2013-09-07 16:20:00,76.8,53.8,29.89,North,9,0.0,2.0,45,0.00,,,0.00,WeatherCatV1.15B25,2013-09-07 20:20:00,
2013-09-07 16:25:00,76.6,53.6,29.89,ESE,118,0.0,1.0,45,0.00,,,0.00,WeatherCatV1.15B25,2013-09-07 20:25:00,
2013-09-07 16:30:00,76.5,53.6,29.89,NW,320,2.0,2.0,45,0.00,,,0.00,WeatherCatV1.15B25,2013-09-07 20:30:00,
2013-09-07 16:35:00,76.6,54.2,29.89,SW,225,0.0,1.0,46,0.00,,,0.00,WeatherCatV1.15B25,2013-09-07 20:35:00,
2013-09-07 16:40:00,76.7,54.9,29.89,South,175,0.0,0.0,47,0.00,,,0.00,WeatherCatV1.15B25,2013-09-07 20:40:00,
2013-09-07 16:45:00,76.8,53.8,29.89,ESE,112,1.0,2.0,45,0.00,,,0.00,WeatherCatV1.15B25,2013-09-07 20:45:00,
2013-09-07 16:50:00,76.8,55.6,29.89,East,84,2.0,2.0,48,0.00,,,0.00,WeatherCatV1.15B25,2013-09-07 20:50:00,
2013-09-07 16:55:00,76.5,54.2,29.89,SW,229,1.0,5.0,46,0.00,,,0.00,WeatherCatV1.15B25,2013-09-07 20:55:00,
2013-09-07 17:00:00,76.2,54.5,29.89,NW,305,1.0,2.0,47,0.00,,,0.00,WeatherCatV1.15B25,2013-09-07 21:00:00,
2013-09-07 17:05:00,75.9,53.6,29.89,NW,312,2.0,3.0,46,0.00,,,0.00,WeatherCatV1.15B25,2013-09-07 21:05:00,
2013-09-07 17:10:00,75.7,54.0,29.89,NW,311,3.0,4.0,47,0.00,,,0.00,WeatherCatV1.15B25,2013-09-07 21:10:00,
2013-09-07 17:15:00,75.5,53.8,29.89,NNW,335,2.0,6.0,47,0.00,,,0.00,WeatherCatV1.15B25,2013-09-07 21:15:00,
2013-09-07 17:20:00,75.3,54.2,29.89,WNW,302,0.0,5.0,48,0.00,,,0.00,WeatherCatV1.15B25,2013-09-07 21:20:00,
2013-09-07 17:25:00,75.1,54.1,29.89,SW,221,0.0,2.0,48,0.00,,,0.00,WeatherCatV1.15B25,2013-09-07 21:25:00,
2013-09-07 17:30:00,75.0,54.0,29.89,SW,225,0.0,2.0,48,0.00,,,0.00,WeatherCatV1.15B25,2013-09-07 21:30:00,
2013-09-07 17:35:00,74.9,54.4,29.89,NW,308,0.0,4.0,49,0.00,,,0.00,WeatherCatV1.15B25,2013-09-07 21:35:00,
2013-09-07 17:40:00,74.8,54.9,29.89,West,264,0.0,3.0,50,0.00,,,0.00,WeatherCatV1.15B25,2013-09-07 21:40:00,
2013-09-07 17:45:00,74.7,54.8,29.89,East,90,0.0,1.0,50,0.00,,,0.00,WeatherCatV1.15B25,2013-09-07 21:45:00,
2013-09-07 17:50:00,74.6,54.7,29.89,NNW,342,0.0,1.0,50,0.00,,,0.00,WeatherCatV1.15B25,2013-09-07 21:50:00,
2013-09-07 17:55:00,74.5,54.6,29.89,NW,311,0.0,0.0,50,0.00,,,0.00,WeatherCatV1.15B25,2013-09-07 21:55:00,
2013-09-07 18:00:00,74.3,55.0,29.89,NW,319,1.0,4.0,51,0.00,,,0.00,WeatherCatV1.15B25,2013-09-07 22:00:00,
2013-09-07 18:05:00,74.2,54.9,29.89,West,271,0.0,1.0,51,0.00,,,0.00,WeatherCatV1.15B25,2013-09-07 22:05:00,
2013-09-07 18:10:00,74.1,55.3,29.89,WSW,255,0.0,3.0,52,0.00,,,0.00,WeatherCatV1.15B25,2013-09-07 22:10:00,
2013-09-07 18:15:00,73.9,55.1,29.89,NW,314,1.0,3.0,52,0.00,,,0.00,WeatherCatV1.15B25,2013-09-07 22:15:00,
2013-09-07 18:20:00,73.8,55.6,29.89,North,351,3.0,4.0,53,0.00,,,0.00,WeatherCatV1.15B25,2013-09-07 22:20:00,
2013-09-07 18:25:00,73.6,55.4,29.89,NW,309,1.0,2.0,53,0.00,,,0.00,WeatherCatV1.15B25,2013-09-07 22:25:00,
2013-09-07 18:30:00,73.4,55.2,29.89,NW,315,0.0,1.0,53,0.00,,,0.00,WeatherCatV1.15B25,2013-09-07 22:30:00,
2013-09-07 18:35:00,73.2,55.5,29.89,WNW,293,0.0,0.0,54,0.00,,,0.00,WeatherCatV1.15B25,2013-09-07 22:35:00,
2013-09-07 18:40:00,73.0,55.4,29.89,NW,309,1.0,1.0,54,0.00,,,0.00,WeatherCatV1.15B25,2013-09-07 22:40:00,
2013-09-07 18:45:00,72.9,55.3,29.89,NW,316,0.0,0.0,54,0.00,,,0.00,WeatherCatV1.15B25,2013-09-07 22:45:00,
2013-09-07 18:50:00,72.7,55.6,29.89,WNW,291,0.0,1.0,55,0.00,,,0.00,WeatherCatV1.15B25,2013-09-07 22:50:00,
2013-09-07 18:55:00,72.5,55.4,29.88,NNW,328,0.0,1.0,55,0.00,,,0.00,WeatherCatV1.15B25,2013-09-07 22:55:00,
2013-09-07 19:00:00,72.4,55.3,29.88,West,266,1.0,1.0,55,0.00,,,0.00,WeatherCatV1.15B25,2013-09-07 23:00:00,
2013-09-07 19:05:00,72.2,55.6,29.89,WNW,292,0.0,1.0,56,0.00,,,0.00,WeatherCatV1.15B25,2013-09-07 23:05:00,
2013-09-07 19:10:00,72.0,55.4,29.89,WNW,293,0.0,1.0,56,0.00,,,0.00,WeatherCatV1.15B25,2013-09-07 23:10:00,
2013-09-07 19:15:00,71.9,55.8,29.89,WNW,300,0.0,1.0,57,0.00,,,0.00,WeatherCatV1.15B25,2013-09-07 23:15:00,
2013-09-07 19:20:00,71.8,55.7,29.89,NW,314,0.0,1.0,57,0.00,,,0.00,WeatherCatV1.15B25,2013-09-07 23:20:00,
2013-09-07 19:25:00,71.6,55.5,29.89,NW,314,0.0,0.0,57,0.00,,,0.00,WeatherCatV1.15B25,2013-09-07 23:25:00,
2013-09-07 19:30:00,71.5,55.5,29.89,NW,318,0.0,1.0,57,0.00,,,0.00,WeatherCatV1.15B25,2013-09-07 23:30:00,
2013-09-07 19:35:00,71.4,55.8,29.89,NW,318,0.0,0.0,58,0.00,,,0.00,WeatherCatV1.15B25,2013-09-07 23:35:00,
2013-09-07 19:40:00,71.3,55.7,29.89,NW,318,0.0,0.0,58,0.00,,,0.00,WeatherCatV1.15B25,2013-09-07 23:40:00,
2013-09-07 19:45:00,71.2,55.7,29.88,NW,318,0.0,0.0,58,0.00,,,0.00,WeatherCatV1.15B25,2013-09-07 23:45:00,
2013-09-07 19:50:00,71.1,56.0,29.88,NNW,329,0.0,1.0,59,0.00,,,0.00,WeatherCatV1.15B25,2013-09-07 23:50:00,
2013-09-07 19:55:00,71.1,56.0,29.88,NNW,329,0.0,1.0,59,0.00,,,0.00,WeatherCatV1.15B25,2013-09-07 23:55:00,
2013-09-07 20:00:00,71.0,55.9,29.89,WNW,284,0.0,0.0,59,0.00,,,0.00,WeatherCatV1.15B25,2013-09-08 00:00:00,
2013-09-07 20:05:00,70.9,55.8,29.89,NW,311,0.0,0.0,59,0.00,,,0.00,WeatherCatV1.15B25,2013-09-08 00:05:00,
2013-09-07 20:10:00,70.8,56.2,29.89,NW,311,0.0,1.0,60,0.00,,,0.00,WeatherCatV1.15B25,2013-09-08 00:10:00,
2013-09-07 20:15:00,70.7,57.0,29.89,NW,311,0.0,0.0,62,0.00,,,0.00,WeatherCatV1.15B25,2013-09-08 00:15:00,
2013-09-07 20:20:00,70.4,57.6,29.89,NW,311,0.0,0.0,64,0.00,,,0.00,WeatherCatV1.15B25,2013-09-08 00:20:00,
2013-09-07 20:25:00,70.1,57.3,29.88,NW,311,0.0,0.0,64,0.00,,,0.00,WeatherCatV1.15B25,2013-09-08 00:25:00,
2013-09-07 20:30:00,69.7,58.2,29.88,NW,311,0.0,0.0,67,0.00,,,0.00,WeatherCatV1.15B25,2013-09-08 00:30:00,
2013-09-07 20:35:00,69.2,58.2,29.89,NW,311,0.0,0.0,68,0.00,,,0.00,WeatherCatV1.15B25,2013-09-08 00:35:00,
2013-09-07 20:40:00,68.8,58.2,29.89,NW,311,0.0,0.0,69,0.00,,,0.00,WeatherCatV1.15B25,2013-09-08 00:40:00,
2013-09-07 20:45:00,68.6,58.4,29.89,NW,311,0.0,0.0,70,0.00,,,0.00,WeatherCatV1.15B25,2013-09-08 00:45:00,
2013-09-07 20:50:00,68.3,58.1,29.88,NW,311,0.0,0.0,70,0.00,,,0.00,WeatherCatV1.15B25,2013-09-08 00:50:00,
2013-09-07 20:55:00,68.1,58.3,29.88,NW,311,0.0,0.0,71,0.00,,,0.00,WeatherCatV1.15B25,2013-09-08 00:55:00,
2013-09-07 21:00:00,68.0,57.8,29.88,NW,311,0.0,0.0,70,0.00,,,0.00,WeatherCatV1.15B25,2013-09-08 01:00:00,
2013-09-07 21:05:00,67.9,57.3,29.88,NW,311,0.0,0.0,69,0.00,,,0.00,WeatherCatV1.15B25,2013-09-08 01:05:00,
2013-09-07 21:10:00,68.0,57.4,29.88,NW,307,0.0,1.0,69,0.00,,,0.00,WeatherCatV1.15B25,2013-09-08 01:10:00,
2013-09-07 21:15:00,68.2,57.2,29.88,NW,307,0.0,0.0,68,0.00,,,0.00,WeatherCatV1.15B25,2013-09-08 01:15:00,
2013-09-07 21:20:00,68.1,57.5,29.88,NW,307,0.0,0.0,69,0.00,,,0.00,WeatherCatV1.15B25,2013-09-08 01:20:00,
2013-09-07 21:25:00,68.0,57.8,29.88,NW,307,0.0,0.0,70,0.00,,,0.00,WeatherCatV1.15B25,2013-09-08 01:25:00,
2013-09-07 21:30:00,67.8,58.0,29.88,NW,307,0.0,0.0,71,0.00,,,0.00,WeatherCatV1.15B25,2013-09-08 01:30:00,
2013-09-07 21:35:00,67.7,57.6,29.88,NW,307,0.0,0.0,70,0.00,,,0.00,WeatherCatV1.15B25,2013-09-08 01:35:00,
2013-09-07 21:40:00,67.7,57.9,29.88,NW,307,0.0,1.0,71,0.00,,,0.00,WeatherCatV1.15B25,2013-09-08 01:40:00,
2013-09-07 21:45:00,67.6,57.9,29.88,NW,307,0.0,0.0,71,0.00,,,0.00,WeatherCatV1.15B25,2013-09-08 01:45:00,
2013-09-07 21:50:00,67.6,58.2,29.88,NW,307,0.0,0.0,72,0.00,,,0.00,WeatherCatV1.15B25,2013-09-08 01:50:00,
2013-09-07 21:55:00,67.5,57.8,29.88,WNW,289,0.0,2.0,71,0.00,,,0.00,WeatherCatV1.15B25,2013-09-08 01:55:00,
2013-09-07 22:00:00,67.5,58.1,29.88,WNW,289,0.0,0.0,72,0.00,,,0.00,WeatherCatV1.15B25,2013-09-08 02:00:00,
2013-09-07 22:05:00,67.3,58.3,29.88,WNW,289,0.0,1.0,73,0.00,,,0.00,WeatherCatV1.15B25,2013-09-08 02:05:00,
2013-09-07 22:10:00,67.1,58.5,29.88,WNW,289,0.0,0.0,74,0.00,,,0.00,WeatherCatV1.15B25,2013-09-08 02:10:00,
2013-09-07 22:15:00,66.8,59.0,29.88,WNW,289,0.0,0.0,76,0.00,,,0.00,WeatherCatV1.15B25,2013-09-08 02:15:00,
2013-09-07 22:20:00,66.6,58.8,29.88,WNW,289,0.0,0.0,76,0.00,,,0.00,WeatherCatV1.15B25,2013-09-08 02:20:00,
2013-09-07 22:25:00,66.3,59.2,29.88,WNW,289,0.0,0.0,78,0.00,,,0.00,WeatherCatV1.15B25,2013-09-08 02:25:00,
2013-09-07 22:30:00,66.0,59.3,29.88,WNW,289,0.0,0.0,79,0.00,,,0.00,WeatherCatV1.15B25,2013-09-08 02:30:00,
2013-09-07 22:35:00,65.7,59.4,29.88,WNW,289,0.0,0.0,80,0.00,,,0.00,WeatherCatV1.15B25,2013-09-08 02:35:00,
2013-09-07 22:40:00,65.5,59.2,29.88,WNW,289,0.0,0.0,80,0.00,,,0.00,WeatherCatV1.15B25,2013-09-08 02:40:00,
2013-09-07 22:45:00,65.4,59.4,29.88,WNW,289,0.0,0.0,81,0.00,,,0.00,WeatherCatV1.15B25,2013-09-08 02:45:00,
2013-09-07 22:50:00,65.2,58.9,29.88,WNW,289,0.0,0.0,80,0.00,,,0.00,WeatherCatV1.15B25,2013-09-08 02:50:00,
2013-09-07 22:55:00,65.2,58.9,29.88,WNW,289,0.0,0.0,80,0.00,,,0.00,WeatherCatV1.15B25,2013-09-08 02:55:00,
2013-09-07 23:00:00,65.2,58.9,29.87,WNW,289,0.0,0.0,80,0.00,,,0.00,WeatherCatV1.15B25,2013-09-08 03:00:00,
2013-09-07 23:05:00,65.2,58.5,29.87,WNW,289,0.0,0.0,79,0.00,,,0.00,WeatherCatV1.15B25,2013-09-08 03:05:00,
2013-09-07 23:10:00,65.1,58.8,29.87,WNW,289,0.0,0.0,80,0.00,,,0.00,WeatherCatV1.15B25,2013-09-08 03:10:00,
2013-09-07 23:15:00,65.0,58.7,29.86,WNW,289,0.0,0.0,80,0.00,,,0.00,WeatherCatV1.15B25,2013-09-08 03:15:00,
2013-09-07 23:20:00,64.9,58.2,29.86,WNW,289,0.0,0.0,79,0.00,,,0.00,WeatherCatV1.15B25,2013-09-08 03:20:00,
2013-09-07 23:25:00,64.9,58.6,29.86,WNW,289,0.0,0.0,80,0.00,,,0.00,WeatherCatV1.15B25,2013-09-08 03:25:00,
2013-09-07 23:30:00,64.9,58.6,29.85,WNW,289,0.0,0.0,80,0.00,,,0.00,WeatherCatV1.15B25,2013-09-08 03:30:00,
2013-09-07 23:35:00,64.9,57.9,29.85,WNW,289,0.0,1.0,78,0.00,,,0.00,WeatherCatV1.15B25,2013-09-08 03:35:00,
2013-09-07 23:40:00,65.0,57.2,29.85,WNW,289,0.0,0.0,76,0.00,,,0.00,WeatherCatV1.15B25,2013-09-08 03:40:00,
2013-09-07 23:45:00,65.4,57.6,29.85,NNW,328,0.0,1.0,76,0.00,,,0.00,WeatherCatV1.15B25,2013-09-08 03:45:00,
2013-09-07 23:50:00,65.6,57.5,29.85,NNW,329,0.0,1.0,75,0.00,,,0.00,WeatherCatV1.15B25,2013-09-08 03:50:00,
2013-09-07 23:55:00,65.6,57.5,29.85,NNW,329,0.0,0.0,75,0.00,,,0.00,WeatherCatV1.15B25,2013-09-08 03:55:00,